Location: Freemans Gardens
(41.6414°N, 83.6077°W)
Time: 02:35:12
(UTC+00:00)

Cosmos 1812 Rocket - Pass Details

Date: 29 October 2020
Orbit: 605 x 633 km, 82.5° (Epoch: 26 November)

Event Time Altitude Azimuth Distance (km) Brightness Sun altitude
Rises 23:47:51 0° 171° (S) 2,889 7.0 -14.7°
Reaches altitude 10° 23:50:08 10° 165° (SSE) 1,983 6.1 -15.1°
Maximum altitude 23:54:19 45° 93° (E) 847 3.8 -15.9°
Drops below altitude 10° 23:58:30 10° 21° (NNE) 1,982 5.9 -16.6°
Sets 00:00:47 0° 15° (NNE) 2,887 6.8 -17.1°
